This demonstration page uses our WeatherBlox Daily Observations layout. Learn more.

Left ArrowRight Arrow

39.01783, -85.05884

Hourly Observations for December 8, 2017

Temp ( °F °C ) Dew Point ( °F °C ) Humidity (%) Winds ( mph kmh ) Pressure ( in mb ) Visibility ( mi km ) Precip ( " mm )
12:52 am 00:52 Clear 21 -6.1 15 -9.4 78 78 WSW 6 9 30.19 1022 10 16 0.00 0.00
1:52 am 01:52 Clear 20 -6.7 16 -8.9 85 85 WSW 5 7 30.18 1022 10 16 0.00 0.00
2:52 am 02:52 Clear 20 -6.7 16 -8.9 85 85 SSW 6 9 30.19 1022 10 16 0.00 0.00
3:52 am 03:52 Cloudy 21 -6.1 17 -8.3 85 85 SSW 6 9 30.18 1022 10 16 0.00 0.00
4:52 am 04:52 Mostly Cloudy 20 -6.7 17 -8.3 89 89 SSW 3 6 30.15 1021 10 16 0.00 0.00
5:52 am 05:52 Mostly Cloudy 19 -7.2 17 -8.3 92 92 SW 3 6 30.15 1021 10 16 0.00 0.00
6:52 am 06:52 Partly Cloudy 19 -7.2 16 -8.9 88 88 SW 3 6 30.17 1022 10 16 0.00 0.00
7:52 am 07:52 Mostly Cloudy 18 -7.8 16 -8.9 92 92 SSW 3 6 30.15 1021 8 13 0.00 0.00
8:52 am 08:52 Partly Cloudy 20 -6.7 16 -8.9 85 85 WSW 3 6 30.18 1022 9 14 0.00 0.00
9:52 am 09:52 Partly Cloudy 21 -6.1 16 -8.9 81 81 WSW 7 11 30.18 1022 10 16 0.00 0.00
10:52 am 10:52 Mostly Cloudy 23 -5 15 -9.4 72 72 SW 6 9 30.16 1021 10 16 0.00 0.00
11:52 am 11:52 Partly Cloudy 25 -3.9 12 -11.1 58 58 S 8 13 30.13 1020 10 16 0.00 0.00
12:52 pm 12:52 Mostly Cloudy 28 -2.2 8 -13.3 43 43 SW 9 15 30.12 1020 10 16 0.00 0.00
1:52 pm 13:52 Mostly Cloudy 30 -1.1 10 -12.2 43 43 W 6 9 30.07 1018 10 16 0.00 0.00
2:52 pm 14:52 Mostly Cloudy 30 -1.1 11 -11.7 45 45 S 8 13 30.05 1018 10 16 0.00 0.00
3:52 pm 15:52 Mostly Cloudy 30 -1.1 11 -11.7 45 45 SSW 6 9 30.04 1017 10 16 0.00 0.00
4:52 pm 16:52 Mostly Cloudy 29 -1.7 11 -11.7 47 47 SW 5 7 30.03 1017 10 16 0.00 0.00
5:52 pm 17:52 Mostly Cloudy 26 -3.3 13 -10.6 57 57 SSW 5 7 30.02 1017 10 16 0.00 0.00
6:52 pm 18:52 Partly Cloudy 26 -3.3 13 -10.6 57 57 SW 5 7 30.02 1017 10 16 0.00 0.00
7:52 pm 19:52 Mostly Cloudy 25 -3.9 13 -10.6 60 60 SSW 7 11 30.03 1017 10 16 0.00 0.00
8:52 pm 20:52 Mostly Cloudy 24 -4.4 13 -10.6 62 62 SSW 6 9 30.01 1016 10 16 0.00 0.00
9:52 pm 21:52 Partly Cloudy 23 -5 13 -10.6 65 65 SSW 6 9 30.00 1016 10 16 0.00 0.00
10:52 pm 22:52 Partly Cloudy 20 -6.7 13 -10.6 74 74 S 6 9 29.98 1015 10 16 0.00 0.00
11:52 pm 23:52 Mostly Cloudy 22 -5.6 12 -11.1 66 66 SSW 7 11 29.97 1015 10 16 0.00 0.00

Powered by AerisWeather